This is the latest recevied weather packets stored in our database for station/object W2IRT. If no packets are shown the sender has not sent any weather packets the latest 1 day(s).
| Time | Temp. | Humidity | Pressure | Rain* | Wind** | Luminosity | Snow |
|---|---|---|---|---|---|---|---|
| 1778000415 | 28.33° C | 35% | 1008.6 hPa | 0 mm | 1.79 m/s, 225° | - | - |
| 1778000115 | 28.33° C | 35% | 1008.7 hPa | 0 mm | 1.34 m/s, 202° | - | - |
| 1777999815 | 27.78° C | 37% | 1008.8 hPa | 0 mm | 1.34 m/s, 247° | - | - |
| 1777999215 | 27.78° C | 39% | 1008.9 hPa | 0 mm | 0.89 m/s, 225° | - | - |
| 1777998915 | 27.22° C | 38% | 1009 hPa | 0 mm | 0.45 m/s, 225° | - | - |
| 1777998615 | 26.67° C | 38% | 1009 hPa | 0 mm | 0.45 m/s, 225° | - | - |
| 1777998325 | 26.67° C | 40% | 1009.2 hPa | 0 mm | 1.34 m/s, 202° | - | - |
| 1777998015 | 26.11° C | 39% | 1009.2 hPa | 0 mm | 0.89 m/s, 225° | - | - |
| 1777997731 | 26.11° C | 41% | 1009.2 hPa | 0 mm | 0.45 m/s, 225° | - | - |
| 1777997415 | 26.11° C | 41% | 1009.3 hPa | 0 mm | 0.89 m/s, 225° | - | - |
| 1777997115 | 25.56° C | 42% | 1009.4 hPa | 0 mm | 1.34 m/s, 225° | - | - |
| 1777996816 | 25.56° C | 43% | 1009.5 hPa | 0 mm | 0.45 m/s, 225° | - | - |
| 1777996515 | 25.56° C | 42% | 1009.6 hPa | 0 mm | 1.34 m/s, 225° | - | - |
| 1777996215 | 25° C | 43% | 1009.5 hPa | 0 mm | 0.89 m/s, 225° | - | - |
| 1777995915 | 25° C | 43% | 1009.6 hPa | 0 mm | 0.45 m/s, 225° | - | - |
| 1777995615 | 25° C | 44% | 1009.7 hPa | 0 mm | 0.89 m/s, 225° | - | - |
| 1777995315 | 25° C | 43% | 1009.7 hPa | 0 mm | 0.89 m/s, 225° | - | - |
| 1777994717 | 24.44° C | 45% | 1009.9 hPa | 0 mm | 0.89 m/s, 225° | - | - |
| 1777994417 | 24.44° C | 45% | 1010.1 hPa | 0 mm | 0.89 m/s, 225° | - | - |
| 1777994117 | 24.44° C | 44% | 1010 hPa | 0 mm | 0.89 m/s, 225° | - | - |
| 1777993817 | 23.89° C | 45% | 1010 hPa | 0 mm | 0.89 m/s, 225° | - | - |
| 1777993517 | 23.89° C | 45% | 1009.9 hPa | 0 mm | 0.45 m/s, 225° | - | - |
| 1777993217 | 23.89° C | 45% | 1009.9 hPa | 0 mm | 1.34 m/s, 202° | - | - |
| 1777992917 | 23.89° C | 45% | 1010 hPa | 0 mm | 1.34 m/s, 225° | - | - |
| 1777992617 | 23.89° C | 46% | 1010 hPa | 0 mm | 0.45 m/s, 225° | - | - |
* Rain latest hour (hover to see other rain measurements)
** Current wind speed in m/s (hover to see current wind gust speed)